Вернуться в каталог

SL-16 DEB

АктивенLEO
NORAD 19658·DEBRIS·🇷🇺 Russia

Запущен Nov 23, 1988 с Baikonur Cosmodrome

Loading…

Ближайшие Пролёты (ближайшие 24 часа)

TLE

СвежийSource: Space-Track

Эпоха: Sep 14, 2026, 19:34 UTC

1 19658U 88102E   26257.81574381  .00000050  00000-0  84660-4 0  9990
2 19658  71.0189 289.0356 0198280 244.9999 292.9628 13.75099286895914

Отслеживайте SL-16 DEB в реальном времени с AllMySat

Download on the App Store